{"data":{"norad_id":49191,"intl_designator":"2021-083F","name":"ONEWEB-0321","alt_names":[],"object_type":"PAYLOAD","status":"ACTIVE","operator":null,"country":"UK","launch_date":"2021-09-14","launch_site_code":"TYMSC","launch_vehicle":null,"mission":null,"orbit_class":"UNKNOWN","rcs_meters":null,"size_class":null,"mass_kg":null,"dimensions":null,"purposes":["comms"],"wikipedia_slug":null,"has_3d_model":false,"image_url":null,"decayed_at":null,"tle_current":{"epoch":"2026-09-19T23:20:46.958208Z","epoch_age_seconds":67446,"freshness":"FRESH","line1":"1 49191U 21083F   26262.97276572  .00000016  00000+0  67280-5 0  9995","line2":"2 49191  87.9141 255.5244 0001973  84.6571 275.4788 13.20773584249347","mean_motion":13.20773584,"eccentricity":0.0001973,"inclination_deg":87.9141,"raan_deg":255.5244,"arg_perigee_deg":84.6571,"mean_anomaly_deg":275.4788,"bstar":6.728e-6,"rev_number":24934,"period_min":109.02701397456,"perigee_km":1180.2750455342,"apogee_km":1183.2581835005,"semimajor_km":7559.9036145173,"source":"CELESTRAK","updated_at":"2026-09-20T09:00:44.661177Z"}}}